FW6434 Weather Reports


Display with metric or nautical units.
time (UTC)temp
F
wind
direction
speed
MPH
gust
MPH
rain 1hr
in
rain 24hr
in
rain mn
in
humidity
%
barometer
mb
20260504044003 60 185 0.0 7.0 0.00 0.00 0.00 52 1014.9
20260504043954 61 208 4.0 6.0 0.00 0.00 0.00 51 1015.0
20260504043939 60 179 0.0 6.0 0.00 0.00 0.00 52 1015.0
20260504043917 60 208 0.0 6.0 0.00 0.00 0.00 52 1015.0
20260504043652 60 213 2.0 6.0 0.00 0.00 0.00 52 1014.9
20260504043636 60 221 2.0 6.0 0.00 0.00 0.00 52 1014.8
20260504043621 60 204 1.0 4.0 0.00 0.00 0.00 52 1015.0
20260504043605 61 232 4.0 4.0 0.00 0.00 0.00 51 1015.1
20260504043543 61 204 0.0 3.0 0.00 0.00 0.00 51 1014.9
20260504043524 60 195 0.0 3.0 0.00 0.00 0.00 52 1015.0
20260504043509 60 190 0.0 4.0 0.00 0.00 0.00 52 1014.9
20260504043452 60 207 3.0 4.0 0.00 0.00 0.00 52 1015.1
20260504043215 60 185 0.0 7.0 0.00 0.00 0.00 52 1014.9
20260504042424 58 207 0.0 8.0 0.00 0.00 0.00 53 1015.4
20260504042408 58 203 0.0 8.0 0.00 0.00 0.00 54 1014.9
20260504042346 58 176 0.0 8.0 0.00 0.00 0.00 54 1015.1
20260504042024 57 203 0.0 9.0 0.00 0.00 0.00 55 1015.0
20260504041925 57 208 1.0 9.0 0.00 0.00 0.00 55 1014.8
20260504041824 57 227 3.0 9.0 0.00 0.00 0.00 55 1014.9
20260504041725 57 193 0.0 9.0 0.00 0.00 0.00 56 1014.9
20260504041624 56 231 6.0 9.0 0.00 0.00 0.00 56 1014.9
20260504041524 56 213 2.0 9.0 0.00 0.00 0.00 56 1015.0
20260504041423 56 210 2.0 9.0 0.00 0.00 0.00 57 1014.8
20260504041325 56 222 3.0 9.0 0.00 0.00 0.00 57 1014.9
20260504041225 56 240 6.0 9.0 0.00 0.00 0.00 57 1014.9
20260504041126 56 190 0.0 3.0 0.00 0.00 0.00 58 1014.9
20260504041102 55 206 1.0 3.0 0.00 0.00 0.00 58 1015.0
20260504041046 55 205 1.0 3.0 0.00 0.00 0.00 58 1015.0
20260504040725 55 208 2.0 3.0 0.00 0.00 0.00 58 1014.8
20260504040624 55 204 0.0 3.0 0.00 0.00 0.00 58 1014.8
20260504040524 55 200 0.0 3.0 0.00 0.00 0.00 58 1014.8
20260504040508 55 206 1.0 3.0 0.00 0.00 0.00 58 1014.8
20260504040453 55 201 0.0 3.0 0.00 0.00 0.00 58 1015.0
20260504040226 55 204 0.0 3.0 0.00 0.00 0.00 58 1014.6
20260504040124 55 226 2.0 3.0 0.00 0.00 0.00 58 1014.9
20260504040024 55 192 0.0 3.0 0.00 0.00 0.00 58 1014.8
20260504035924 55 201 0.0 3.0 0.00 0.00 0.00 58 1014.6
20260504035824 55 209 0.0 3.0 0.00 0.00 0.00 58 1014.7
20260504035724 55 206 1.0 3.0 0.00 0.00 0.00 58 1014.9
20260504035625 55 211 2.0 3.0 0.00 0.00 0.00 58 1015.0
20260504035523 55 212 1.0 2.0 0.00 0.00 0.00 59 1015.0
20260504035424 55 209 1.0 4.0 0.00 0.00 0.00 58 1014.9
20260504035323 55 206 0.0 4.0 0.00 0.00 0.00 59 1014.8
20260504035224 54 205 0.0 4.0 0.00 0.00 0.00 59 1014.7
20260504035119 54 219 2.0 4.0 0.00 0.00 0.00 59 1014.6
20260504035019 54 218 1.0 4.0 0.00 0.00 0.00 59 1014.7
20260504034918 54 211 1.0 4.0 0.00 0.00 0.00 59 1014.8
20260504034818 54 213 1.0 4.0 0.00 0.00 0.00 59 1014.8
20260504034752 54 219 1.0 4.0 0.00 0.00 0.00 59 1014.8
20260504034738 54 208 1.0 4.0 0.00 0.00 0.00 59 1014.9
20260504034419 54 204 0.0 2.0 0.00 0.00 0.00 61 1014.6
20260504034348 54 206 0.0 1.0 0.00 0.00 0.00 60 1014.8
20260504034326 54 206 0.0 1.0 0.00 0.00 0.00 61 1014.8
20260504034308 54 211 0.0 1.0 0.00 0.00 0.00 60 1014.9
20260504034032 54 197 0.0 1.0 0.00 0.00 0.00 60 1014.8
20260504034015 54 197 0.0 1.0 0.00 0.00 0.00 60 1014.6
20260504033953 54 196 0.0 2.0 0.00 0.00 0.00 61 1014.6
20260504033413 54 197 0.0 2.0 0.00 0.00 0.00 60 1014.8
20260504033313 54 197 0.0 3.0 0.00 0.00 0.00 60 1014.8
20260504033215 54 198 0.0 6.0 0.00 0.00 0.00 60 1014.9
20260504033148 54 199 0.0 6.0 0.00 0.00 0.00 59 1015.0
20260504033132 55 205 0.0 6.0 0.00 0.00 0.00 59 1014.7
20260504032811 55 212 1.0 6.0 0.00 0.00 0.00 58 1014.8
20260504032712 55 205 0.0 6.0 0.00 0.00 0.00 58 1014.7
20260504032611 55 197 0.0 6.0 0.00 0.00 0.00 57 1014.8
20260504032511 55 212 2.0 6.0 0.00 0.00 0.00 57 1014.7
20260504032444 55 214 2.0 6.0 0.00 0.00 0.00 56 1014.8
20260504032427 55 213 3.0 6.0 0.00 0.00 0.00 56 1014.6
20260504032404 55 205 1.0 4.0 0.00 0.00 0.00 57 1014.7
20260504032126 55 207 0.0 4.0 0.00 0.00 0.00 57 1014.8
20260504031808 55 210 0.0 4.0 0.00 0.00 0.00 56 1014.7
20260504031706 56 220 1.0 4.0 0.00 0.00 0.00 56 1014.5
20260504031607 56 208 1.0 4.0 0.00 0.00 0.00 56 1014.5
20260504031533 56 215 1.0 4.0 0.00 0.00 0.00 56 1014.5
20260504031516 56 211 1.0 4.0 0.00 0.00 0.00 56 1014.7
20260504031202 56 209 1.0 4.0 0.00 0.00 0.00 55 1014.6
20260504031150 56 212 1.0 4.0 0.00 0.00 0.00 55 1014.6
20260504031050 56 226 2.0 6.0 0.00 0.00 0.00 55 1014.6
20260504030948 56 209 1.0 6.0 0.00 0.00 0.00 55 1014.8
20260504030929 56 218 3.0 6.0 0.00 0.00 0.00 55 1014.7
20260504030914 56 209 3.0 6.0 0.00 0.00 0.00 55 1014.7
20260504030857 56 230 3.0 6.0 0.00 0.00 0.00 56 1014.6
20260504030543 56 203 2.0 6.0 0.00 0.00 0.00 55 1014.7
20260504030442 55 223 1.0 6.0 0.00 0.00 0.00 56 1014.3
20260504030342 55 222 2.0 6.0 0.00 0.00 0.00 56 1014.7
20260504030242 55 210 4.0 6.0 0.00 0.00 0.00 56 1014.7
20260504030150 55 231 3.0 6.0 0.00 0.00 0.00 56 1014.5
20260504030143 55 234 3.0 6.0 0.00 0.00 0.00 56 1014.5
20260504030041 55 214 1.0 4.0 0.00 0.00 0.00 56 1014.6
20260504025942 55 204 1.0 4.0 0.00 0.00 0.00 56 1014.3
20260504025843 55 203 1.0 4.0 0.00 0.00 0.00 56 1014.6
20260504025744 55 215 1.0 4.0 0.00 0.00 0.00 56 1014.6
20260504025643 55 206 1.0 4.0 0.00 0.00 0.00 57 1014.7
20260504025542 55 200 0.0 4.0 0.00 0.00 0.00 57 1014.2
20260504025442 55 200 0.0 6.0 0.00 0.00 0.00 57 1014.8
20260504025342 55 205 0.0 6.0 0.00 0.00 0.00 57 1014.3
20260504025242 55 203 1.0 6.0 0.00 0.00 0.00 57 1014.5
20260504025150 56 198 0.0 6.0 0.00 0.00 0.00 57 1014.5
20260504025143 56 199 0.0 6.0 0.00 0.00 0.00 57 1014.5
20260504025120 56 199 0.0 6.0 0.00 0.00 0.00 56 1014.3
20260504025105 56 196 0.0 6.0 0.00 0.00 0.00 56 1014.5
20260504024742 56 200 0.0 6.0 0.00 0.00 0.00 56 1014.6
20260504024642 56 199 0.0 6.0 0.00 0.00 0.00 56 1014.3
20260504024542 56 214 1.0 6.0 0.00 0.00 0.00 56 1014.5
20260504024442 56 228 4.0 6.0 0.00 0.00 0.00 55 1014.5
20260504024430 56 211 1.0 6.0 0.00 0.00 0.00 56 1014.3
20260504024421 56 199 0.0 6.0 0.00 0.00 0.00 56 1014.5
20260504024406 56 216 2.0 6.0 0.00 0.00 0.00 56 1014.3
20260504024137 56 214 2.0 6.0 0.00 0.00 0.00 56 1014.8
20260504024038 56 205 2.0 6.0 0.00 0.00 0.00 56 1014.2
20260504023938 56 210 2.0 6.0 0.00 0.00 0.00 55 1014.2
20260504023837 56 192 0.0 6.0 0.00 0.00 0.00 55 1014.2
20260504023737 56 205 0.0 6.0 0.00 0.00 0.00 56 1014.3
20260504023719 56 206 0.0 6.0 0.00 0.00 0.00 56 1014.7
20260504023713 56 209 0.0 6.0 0.00 0.00 0.00 56 1014.3
20260504023657 56 209 1.0 6.0 0.00 0.00 0.00 56 1014.5
20260504023336 56 203 1.0 4.0 0.00 0.00 0.00 56 1014.2
20260504023236 56 198 0.0 4.0 0.00 0.00 0.00 56 1014.6
20260504023221 56 190 1.0 4.0 0.00 0.00 0.00 56 1014.6
20260504023214 56 199 0.0 4.0 0.00 0.00 0.00 57 1014.5
20260504023156 56 169 0.0 4.0 0.00 0.00 0.00 57 1014.7
20260504022835 55 212 2.0 4.0 0.00 0.00 0.00 57 1014.5
20260504022735 55 221 2.0 4.0 0.00 0.00 0.00 58 1014.6
20260504022643 55 198 1.0 2.0 0.00 0.00 0.00 58 1014.6
20260504022634 55 198 1.0 2.0 0.00 0.00 0.00 58 1014.2
20260504022535 55 192 0.0 1.0 0.00 0.00 0.00 58 1014.5
20260504022436 55 196 0.0 1.0 0.00 0.00 0.00 58 1014.3
20260504022336 55 186 0.0 1.0 0.00 0.00 0.00 58 1014.1
20260504022235 55 186 0.0 1.0 0.00 0.00 0.00 59 1014.6
20260504022141 55 186 0.0 1.0 0.00 0.00 0.00 59 1014.6
20260504022120 55 185 0.0 1.0 0.00 0.00 0.00 59 1014.6
20260504022019 55 181 0.0 1.0 0.00 0.00 0.00 59 1014.3
20260504021919 55 186 0.0 1.0 0.00 0.00 0.00 58 1014.6
20260504021807 55 181 0.0 1.0 0.00 0.00 0.00 58 1014.5
20260504021707 55 182 0.0 1.0 0.00 0.00 0.00 58 1014.3
20260504021608 55 182 0.0 1.0 0.00 0.00 0.00 58 1014.6
20260504021507 55 182 0.0 1.0 0.00 0.00 0.00 58 1014.5
20260504021456 56 185 0.0 2.0 0.00 0.00 0.00 57 1014.2
20260504021447 55 181 0.0 1.0 0.00 0.00 0.00 58 1014.3
20260504021432 55 185 0.0 1.0 0.00 0.00 0.00 58 1014.3
20260504021416 55 185 0.0 2.0 0.00 0.00 0.00 58 1014.6
20260504021350 55 182 0.0 2.0 0.00 0.00 0.00 58 1014.3
20260504020853 55 182 0.0 2.0 0.00 0.00 0.00 58 1014.6
20260504020839 56 184 0.0 2.0 0.00 0.00 0.00 58 1014.3
20260504020600 56 186 1.0 2.0 0.00 0.00 0.00 57 1014.2
20260504020447 56 182 0.0 2.0 0.00 0.00 0.00 57 1014.6
20260504020424 56 192 0.0 2.0 0.00 0.00 0.00 57 1014.5
20260504020408 56 188 0.0 2.0 0.00 0.00 0.00 57 1014.3
20260504020126 56 186 0.0 2.0 0.00 0.00 0.00 57 1014.6
20260504020115 56 184 0.0 2.0 0.00 0.00 0.00 57 1014.6
20260504020059 56 185 1.0 2.0 0.00 0.00 0.00 57 1014.6
20260504020042 56 183 1.0 2.0 0.00 0.00 0.00 57 1014.5
20260504020027 56 186 0.0 2.0 0.00 0.00 0.00 57 1014.3
20260504015753 56 186 0.0 2.0 0.00 0.00 0.00 57 1014.6
20260504015745 56 185 0.0 2.0 0.00 0.00 0.00 57 1014.6
20260504015508 56 181 1.0 2.0 0.00 0.00 0.00 57 1014.6
20260504015148 56 182 0.0 2.0 0.00 0.00 0.00 57 1014.5
20260504015107 56 180 1.0 2.0 0.00 0.00 0.00 57 1014.5
20260504015048 56 182 0.0 2.0 0.00 0.00 0.00 57 1014.5
20260504014946 56 181 0.0 2.0 0.00 0.00 0.00 57 1014.5
20260504014903 56 186 0.0 2.0 0.00 0.00 0.00 57 1014.5
20260504014858 56 180 0.0 2.0 0.00 0.00 0.00 57 1014.6
20260504014841 56 181 0.0 2.0 0.00 0.00 0.00 57 1014.6
20260504014825 56 183 0.0 2.0 0.00 0.00 0.00 57 1014.5
20260504014547 56 187 0.0 2.0 0.00 0.00 0.00 57 1014.5
20260504014520 56 173 1.0 2.0 0.00 0.00 0.00 57 1014.5
20260504014504 56 178 0.0 2.0 0.00 0.00 0.00 57 1014.2
20260504014228 56 183 0.0 2.0 0.00 0.00 0.00 57 1014.6
20260504014211 56 186 0.0 2.0 0.00 0.00 0.00 57 1014.3
20260504014203 56 187 1.0 2.0 0.00 0.00 0.00 57 1014.3
20260504013844 56 176 0.0 2.0 0.00 0.00 0.00 57 1014.5
20260504013742 56 182 0.0 2.0 0.00 0.00 0.00 57 1014.5
20260504013643 56 191 0.0 2.0 0.00 0.00 0.00 57 1014.6
20260504013604 56 179 0.0 2.0 0.00 0.00 0.00 57 1014.7
20260504013542 56 177 0.0 2.0 0.00 0.00 0.00 57 1014.7
20260504013517 56 188 0.0 2.0 0.00 0.00 0.00 57 1014.7
20260504013502 56 190 1.0 2.0 0.00 0.00 0.00 57 1014.6
20260504013141 56 186 0.0 2.0 0.00 0.00 0.00 57 1014.5
20260504013109 56 194 1.0 2.0 0.00 0.00 0.00 57 1014.3
20260504013053 56 170 1.0 2.0 0.00 0.00 0.00 57 1014.5
20260504013037 56 181 0.0 2.0 0.00 0.00 0.00 57 1014.5
20260504012801 56 179 0.0 2.0 0.00 0.00 0.00 57 1014.3
20260504012747 56 182 0.0 2.0 0.00 0.00 0.00 57 1014.3
20260504012435 56 180 0.0 2.0 0.00 0.00 0.00 57 1014.5
20260504012336 56 191 0.0 2.0 0.00 0.00 0.00 57 1014.8
20260504012230 56 186 0.0 2.0 0.00 0.00 0.00 57 1014.6
20260504012105 56 179 0.0 2.0 0.00 0.00 0.00 57 1014.5
20260504012050 56 175 0.0 2.0 0.00 0.00 0.00 57 1014.5
20260504012006 56 186 0.0 2.0 0.00 0.00 0.00 57 1014.5
20260504011906 56 186 1.0 2.0 0.00 0.00 0.00 57 1014.3
20260504011844 56 182 0.0 1.0 0.00 0.00 0.00 58 1014.6
20260504011836 56 185 0.0 2.0 0.00 0.00 0.00 57 1014.3
20260504011820 56 175 1.0 2.0 0.00 0.00 0.00 57 1014.7
20260504011753 56 172 0.0 2.0 0.00 0.00 0.00 57 1014.6
20260504011743 56 182 0.0 2.0 0.00 0.00 0.00 57 1014.3
20260504011726 56 175 0.0 1.0 0.00 0.00 0.00 57 1014.5
20260504011230 56 182 0.0 1.0 0.00 0.00 0.00 57 1014.5
20260504011215 56 179 0.0 1.0 0.00 0.00 0.00 57 1014.5
20260504011205 56 186 0.0 1.0 0.00 0.00 0.00 58 1014.7
20260504011150 56 182 0.0 1.0 0.00 0.00 0.00 58 1014.8
20260504011134 56 184 0.0 1.0 0.00 0.00 0.00 58 1014.5
20260504011118 56 182 0.0 1.0 0.00 0.00 0.00 58 1014.7
20260504011100 56 182 0.0 1.0 0.00 0.00 0.00 58 1014.6
20260504010352 56 188 1.0 2.0 0.00 0.00 0.00 58 1014.5
20260504010336 56 182 0.0 2.0 0.00 0.00 0.00 58 1014.5
20260504010108 56 182 0.0 2.0 0.00 0.00 0.00 58 1014.3
20260504005956 56 182 1.0 2.0 0.00 0.00 0.00 58 1014.7
20260504005848 56 181 0.0 2.0 0.00 0.00 0.00 57 1014.5
20260504005748 57 178 0.0 2.0 0.00 0.00 0.00 57 1014.5
20260504005647 57 180 0.0 2.0 0.00 0.00 0.00 57 1014.6
20260504005549 57 182 0.0 2.0 0.00 0.00 0.00 57 1014.7
20260504005447 57 184 0.0 2.0 0.00 0.00 0.00 57 1014.6
20260504005347 57 200 0.0 1.0 0.00 0.00 0.00 57 1014.7
20260504005327 57 189 0.0 1.0 0.00 0.00 0.00 57 1014.8
20260504005311 57 190 0.0 1.0 0.00 0.00 0.00 57 1014.6
20260504005043 57 184 0.0 0.0 0.00 0.00 0.00 57 1014.6
20260504004609 56 184 0.0 3.0 0.00 0.00 0.00 57 1014.7
20260504004554 56 219 1.0 3.0 0.00 0.00 0.00 57 1014.8
20260504004537 56 207 1.0 3.0 0.00 0.00 0.00 57 1014.5
20260504004530 56 188 0.0 3.0 0.00 0.00 0.00 57 1014.5
20260504004515 56 201 1.0 2.0 0.00 0.00 0.00 57 1014.5
20260504004238 56 179 0.0 1.0 0.00 0.00 0.00 57 1014.5
20260504003752 56 181 0.0 1.0 0.00 0.00 0.00 58 1014.7
20260504003735 56 185 0.0 1.0 0.00 0.00 0.00 58 1014.7
20260504003458 56 187 0.0 2.0 0.00 0.00 0.00 58 1014.6
20260504003220 56 180 0.0 2.0 0.00 0.00 0.00 58 1014.8
20260504003213 56 181 0.0 2.0 0.00 0.00 0.00 58 1014.8
20260504002938 56 182 0.0 2.0 0.00 0.00 0.00 58 1014.8
20260504002921 56 181 0.0 2.0 0.00 0.00 0.00 58 1014.8
20260504002645 56 185 0.0 2.0 0.00 0.00 0.00 58 1014.6
20260504002330 57 184 0.0 2.0 0.00 0.00 0.00 58 1014.5
20260504002230 57 177 0.0 1.0 0.00 0.00 0.00 57 1014.8
20260504002129 57 168 0.0 1.0 0.00 0.00 0.00 57 1014.6
20260504002029 57 176 0.0 1.0 0.00 0.00 0.00 57 1015.0
20260504001937 57 180 0.0 1.0 0.00 0.00 0.00 57 1015.0
20260504001929 57 180 0.0 1.0 0.00 0.00 0.00 57 1014.6
20260504001828 57 172 0.0 3.0 0.00 0.00 0.00 57 1014.6
20260504001727 57 175 0.0 3.0 0.00 0.00 0.00 57 1014.7
20260504001628 57 166 0.0 3.0 0.00 0.00 0.00 57 1014.6
20260504001523 57 177 1.0 3.0 0.00 0.00 0.00 57 1014.6
20260504001441 57 178 0.0 3.0 0.00 0.00 0.00 57 1014.9
20260504001434 57 175 0.0 3.0 0.00 0.00 0.00 57 1014.9
20260504001418 57 162 0.0 3.0 0.00 0.00 0.00 57 1014.7
20260504001400 57 191 1.0 3.0 0.00 0.00 0.00 57 1014.9
20260504001123 57 182 0.0 3.0 0.00 0.00 0.00 57 1014.7
20260504001106 57 186 0.0 3.0 0.00 0.00 0.00 57 1014.9
20260504001100 57 188 0.0 3.0 0.00 0.00 0.00 57 1014.9
20260504000833 57 190 0.0 2.0 0.00 0.00 0.00 57 1014.7
20260504000818 57 180 0.0 2.0 0.00 0.00 0.00 57 1014.6
20260504000802 57 180 0.0 2.0 0.00 0.00 0.00 57 1014.6
20260504000536 57 171 0.0 2.0 0.00 0.00 0.00 57 1014.7
20260504000519 57 178 0.0 2.0 0.00 0.00 0.00 57 1014.7
20260504000512 57 180 0.0 2.0 0.00 0.00 0.00 57 1014.7
20260504000455 57 175 0.0 2.0 0.00 0.00 0.00 56 1014.8
20260504000219 57 188 1.0 2.0 0.00 0.00 0.00 56 1014.8
20260504000204 57 179 0.0 2.0 0.00 0.00 0.00 56 1014.8
20260504000148 57 174 0.0 2.0 0.00 0.00 0.00 56 1014.8
20260504000142 57 174 0.0 2.0 0.00 0.00 0.00 56 1014.8
20260504000126 57 151 0.0 1.0 0.00 0.00 0.00 56 1015.0
20260504000110 58 177 0.0 1.0 0.00 0.00 0.00 56 1014.7
20260504000055 58 177 0.0 1.0 0.00 0.00 0.00 56 1014.9
20260504000040 58 175 0.0 1.0 0.00 0.00 0.00 56 1014.8
20260504000024 58 154 1.0 1.0 0.00 0.00 0.00 56 1014.8
20260503235535 58 173 0.0 2.0 0.00 0.00 0.00 55 1014.8
20260503235300 58 178 0.0 4.0 0.00 0.00 0.00 55 1014.7
20260503235244 58 185 0.0 6.0 0.00 0.00 0.00 54 1014.8
20260503235236 58 186 0.0 6.0 0.00 0.00 0.00 54 1014.8
20260503235000 59 197 0.0 6.0 0.00 0.00 0.00 54 1014.6
20260503234944 59 194 0.0 6.0 0.00 0.00 0.00 54 1014.9
20260503234929 59 196 0.0 8.0 0.00 0.00 0.00 54 1015.0
20260503234701 59 199 1.0 8.0 0.00 0.00 0.00 54 1014.8
20260503234425 59 217 1.0 8.0 0.00 0.00 0.00 54 1014.8
20260503234408 59 204 1.0 8.0 0.00 0.00 0.00 54 1014.9
20260503234133 59 222 4.0 8.0 0.00 0.00 0.00 54 1014.9
20260503234126 59 220 4.0 8.0 0.00 0.00 0.00 54 1014.9
20260503233849 59 204 4.0 8.0 0.00 0.00 0.00 54 1014.9
20260503233833 58 200 1.0 3.0 0.00 0.00 0.00 54 1014.9
20260503233600 58 199 1.0 3.0 0.00 0.00 0.00 54 1014.9
20260503233247 59 196 2.0 2.0 0.00 0.00 0.00 54 1015.1
20260503233222 59 227 2.0 2.0 0.00 0.00 0.00 54 1014.9
20260503233206 59 196 0.0 2.0 0.00 0.00 0.00 54 1014.9
20260503232906 59 189 0.0 2.0 0.00 0.00 0.00 54 1014.8
20260503232847 59 188 0.0 2.0 0.00 0.00 0.00 54 1014.8
20260503232747 59 209 0.0 4.0 0.00 0.00 0.00 54 1014.8
20260503232646 59 200 0.0 4.0 0.00 0.00 0.00 54 1014.9
20260503232546 59 196 0.0 6.0 0.00 0.00 0.00 54 1014.9
20260503232444 59 198 1.0 6.0 0.00 0.00 0.00 53 1014.9
20260503232406 59 190 0.0 6.0 0.00 0.00 0.00 53 1014.9
20260503232346 59 185 0.0 6.0 0.00 0.00 0.00 53 1014.9
20260503232246 59 194 0.0 7.0 0.00 0.00 0.00 53 1015.0
20260503232145 59 200 0.0 7.0 0.00 0.00 0.00 53 1014.8
20260503232045 59 221 1.0 7.0 0.00 0.00 0.00 53 1015.1
20260503231946 59 212 1.0 7.0 0.00 0.00 0.00 53 1014.9
20260503231905 59 213 1.0 7.0 0.00 0.00 0.00 53 1015.1
20260503231845 59 206 2.0 7.0 0.00 0.00 0.00 53 1015.1
20260503231746 59 211 3.0 7.0 0.00 0.00 0.00 53 1015.1
20260503231645 59 240 4.0 7.0 0.00 0.00 0.00 53 1015.0
20260503231618 59 230 4.0 7.0 0.00 0.00 0.00 53 1015.0
20260503231602 59 217 2.0 7.0 0.00 0.00 0.00 53 1015.0
20260503231548 59 226 4.0 7.0 0.00 0.00 0.00 53 1015.3
20260503231540 59 243 6.0 7.0 0.00 0.00 0.00 53 1015.3
20260503231521 59 217 3.0 7.0 0.00 0.00 0.00 53 1015.1
20260503231246 59 229 3.0 7.0 0.00 0.00 0.00 53 1015.2
20260503231230 60 201 0.0 7.0 0.00 0.00 0.00 53 1014.9
20260503231216 60 227 1.0 7.0 0.00 0.00 0.00 53 1015.0
20260503230641 60 202 2.0 7.0 0.00 0.00 0.00 53 1015.1
20260503230541 60 239 2.0 7.0 0.00 0.00 0.00 52 1014.8
20260503230442 60 216 0.0 7.0 0.00 0.00 0.00 52 1014.9
20260503230402 60 227 2.0 7.0 0.00 0.00 0.00 52 1015.2
20260503230341 60 222 3.0 7.0 0.00 0.00 0.00 52 1015.2
20260503230242 60 198 0.0 7.0 0.00 0.00 0.00 52 1014.9
20260503230143 60 218 6.0 7.0 0.00 0.00 0.00 52 1015.1
20260503230041 60 229 2.0 7.0 0.00 0.00 0.00 52 1015.1
20260503230025 60 204 2.0 6.0 0.00 0.00 0.00 52 1015.0
20260503230010 60 207 1.0 6.0 0.00 0.00 0.00 52 1015.1
20260503230002 60 233 1.0 7.0 0.00 0.00 0.00 52 1015.1
20260503225641 60 222 1.0 7.0 0.00 0.00 0.00 52 1015.0
20260503225541 60 209 2.0 7.0 0.00 0.00 0.00 52 1015.1
20260503225441 60 229 3.0 7.0 0.00 0.00 0.00 52 1015.2
20260503225400 60 210 2.0 7.0 0.00 0.00 0.00 52 1015.2
20260503225342 60 238 4.0 7.0 0.00 0.00 0.00 52 1015.2
20260503225241 60 223 1.0 7.0 0.00 0.00 0.00 52 1015.2
20260503225141 60 227 1.0 7.0 0.00 0.00 0.00 52 1015.2
20260503225042 60 225 3.0 7.0 0.00 0.00 0.00 52 1015.2
20260503224954 60 205 1.0 7.0 0.00 0.00 0.00 52 1015.1
20260503224949 60 223 1.0 7.0 0.00 0.00 0.00 52 1015.0
20260503224934 60 222 6.0 7.0 0.00 0.00 0.00 52 1015.0
20260503224926 60 217 4.0 4.0 0.00 0.00 0.00 52 1015.0
20260503224909 60 206 0.0 3.0 0.00 0.00 0.00 52 1015.1
20260503224854 60 212 0.0 7.0 0.00 0.00 0.00 52 1015.1
20260503224838 60 218 2.0 7.0 0.00 0.00 0.00 52 1014.9
20260503224339 60 215 1.0 7.0 0.00 0.00 0.00 52 1015.1
20260503224241 60 192 0.0 7.0 0.00 0.00 0.00 52 1015.2
20260503224141 60 201 0.0 7.0 0.00 0.00 0.00 52 1015.0
20260503224041 60 173 0.0 7.0 0.00 0.00 0.00 52 1015.1
20260503223941 60 203 0.0 7.0 0.00 0.00 0.00 52 1015.1
20260503223900 60 255 1.0 7.0 0.00 0.00 0.00 52 1015.1
20260503223841 60 198 0.0 7.0 0.00 0.00 0.00 52 1015.1
20260503223740 60 217 2.0 7.0 0.00 0.00 0.00 52 1015.0
20260503223640 60 178 0.0 3.0 0.00 0.00 0.00 52 1015.0
20260503223623 60 185 0.0 3.0 0.00 0.00 0.00 52 1015.1
20260503223607 60 195 0.0 3.0 0.00 0.00 0.00 52 1015.0
20260503223553 60 216 1.0 3.0 0.00 0.00 0.00 52 1015.4
20260503223240 59 188 1.0 3.0 0.00 0.00 0.00 52 1015.2
20260503223140 59 207 1.0 8.0 0.00 0.00 0.00 52 1015.2
20260503223040 59 225 0.0 8.0 0.00 0.00 0.00 53 1015.2
20260503222941 59 194 0.0 8.0 0.00 0.00 0.00 52 1015.1
20260503222859 59 214 1.0 8.0 0.00 0.00 0.00 52 1015.1
20260503222839 59 107 1.0 8.0 0.00 0.00 0.00 52 1015.1
20260503222741 59 270 1.0 8.0 0.00 0.00 0.00 53 1014.8
20260503222654 59 190 1.0 8.0 0.00 0.00 0.00 53 1015.2
20260503222638 59 168 0.0 8.0 0.00 0.00 0.00 53 1014.9
20260503222622 59 191 0.0 8.0 0.00 0.00 0.00 53 1015.2
20260503222608 59 163 0.0 8.0 0.00 0.00 0.00 53 1015.3
20260503222600 59 171 0.0 8.0 0.00 0.00 0.00 53 1015.3
20260503222322 58 211 1.0 6.0 0.00 0.00 0.00 53 1015.3
20260503222305 58 199 0.0 6.0 0.00 0.00 0.00 54 1015.1
20260503222249 58 192 0.0 6.0 0.00 0.00 0.00 54 1015.3
20260503222235 58 189 0.0 6.0 0.00 0.00 0.00 55 1015.3
20260503222007 58 203 0.0 6.0 0.00 0.00 0.00 55 1015.0
20260503221952 58 203 0.0 2.0 0.00 0.00 0.00 55 1015.1
20260503221717 58 182 0.0 2.0 0.00 0.00 0.00 56 1015.4
20260503221702 58 197 0.0 2.0 0.00 0.00 0.00 56 1015.4
20260503221655 58 191 0.0 2.0 0.00 0.00 0.00 55 1015.0
20260503221417 58 196 0.0 1.0 0.00 0.00 0.00 55 1015.3
20260503220854 59 196 0.0 2.0 0.00 0.00 0.00 55 1015.1
20260503220834 59 194 0.0 2.0 0.00 0.00 0.00 55 1015.2
20260503220811 59 192 0.0 2.0 0.00 0.00 0.00 55 1015.1
20260503220755 59 192 0.0 2.0 0.00 0.00 0.00 55 1015.2
20260503220514 59 195 0.0 2.0 0.00 0.00 0.00 54 1015.2
20260503220459 59 193 0.0 3.0 0.00 0.00 0.00 54 1015.2
20260503220452 59 193 0.0 4.0 0.00 0.00 0.00 54 1015.1
20260503220129 59 193 0.0 4.0 0.00 0.00 0.00 54 1015.4
20260503220029 59 217 0.0 4.0 0.00 0.00 0.00 53 1015.4
20260503215929 59 210 1.0 4.0 0.00 0.00 0.00 53 1015.3
20260503215850 59 188 0.0 4.0 0.00 0.00 0.00 53 1015.3
20260503215830 59 192 0.0 4.0 0.00 0.00 0.00 53 1015.2
20260503215806 60 210 0.0 2.0 0.00 0.00 0.00 53 1015.4
20260503215756 60 192 0.0 4.0 0.00 0.00 0.00 53 1015.1
20260503215741 60 187 0.0 4.0 0.00 0.00 0.00 53 1015.3
20260503215725 60 187 0.0 4.0 0.00 0.00 0.00 53 1015.2
20260503215459 60 178 0.0 4.0 0.00 0.00 0.00 53 1015.2
20260503215445 60 182 0.0 3.0 0.00 0.00 0.00 53 1015.2
20260503215437 60 260 0.0 3.0 0.00 0.00 0.00 53 1015.3
20260503215418 60 167 0.0 2.0 0.00 0.00 0.00 53 1015.3
20260503215403 60 185 0.0 2.0 0.00 0.00 0.00 53 1015.0
20260503215347 60 198 0.0 2.0 0.00 0.00 0.00 53 1015.0
20260503215330 60 199 0.0 2.0 0.00 0.00 0.00 53 1015.4
20260503215104 60 198 0.0 2.0 0.00 0.00 0.00 53 1015.3
20260503215048 60 190 0.0 2.0 0.00 0.00 0.00 53 1015.2
20260503214810 60 199 0.0 4.0 0.00 0.00 0.00 53 1015.3
20260503214536 60 194 0.0 4.0 0.00 0.00 0.00 53 1015.1
20260503214223 60 194 0.0 4.0 0.00 0.00 0.00 53 1015.4
20260503214122 60 192 0.0 4.0 0.00 0.00 0.00 53 1015.4
20260503214022 60 194 0.0 4.0 0.00 0.00 0.00 53 1015.3
20260503213922 60 194 0.0 4.0 0.00 0.00 0.00 53 1015.2
20260503213822 60 191 0.0 4.0 0.00 0.00 0.00 53 1015.2
20260503213721 60 191 0.0 4.0 0.00 0.00 0.00 52 1015.2
20260503213623 61 192 0.0 4.0 0.00 0.00 0.00 52 1015.3
20260503213556 61 196 0.0 4.0 0.00 0.00 0.00 52 1015.2
20260503213540 61 184 0.0 4.0 0.00 0.00 0.00 52 1015.3
20260503213526 61 222 0.0 4.0 0.00 0.00 0.00 52 1015.3
20260503213518 61 200 0.0 4.0 0.00 0.00 0.00 52 1015.5
20260503213239 61 181 0.0 4.0 0.00 0.00 0.00 52 1015.1
20260503213223 61 213 2.0 4.0 0.00 0.00 0.00 52 1015.2
20260503213207 61 160 0.0 2.0 0.00 0.00 0.00 52 1015.4
20260503213153 61 180 0.0 2.0 0.00 0.00 0.00 52 1015.4
20260503212618 61 152 1.0 2.0 0.00 0.00 0.00 52 1015.2
20260503212515 61 188 0.0 2.0 0.00 0.00 0.00 52 1015.2
20260503212415 61 195 0.0 2.0 0.00 0.00 0.00 52 1015.2
20260503212336 61 199 0.0 2.0 0.00 0.00 0.00 52 1015.2
20260503212317 61 186 0.0 2.0 0.00 0.00 0.00 52 1015.2
20260503212215 61 181 0.0 2.0 0.00 0.00 0.00 52 1015.3
20260503212146 61 186 0.0 2.0 0.00 0.00 0.00 52 1015.3
20260503212129 61 185 0.0 2.0 0.00 0.00 0.00 52 1015.4
20260503211829 61 176 0.0 2.0 0.00 0.00 0.00 52 1015.3
20260503211809 61 230 1.0 2.0 0.00 0.00 0.00 52 1015.3
20260503211709 61 194 0.0 2.0 0.00 0.00 0.00 52 1015.2
20260503211609 61 182 0.0 1.0 0.00 0.00 0.00 52 1015.4
20260503211510 61 193 0.0 3.0 0.00 0.00 0.00 52 1015.2
20260503211456 61 198 0.0 3.0 0.00 0.00 0.00 52 1015.3
20260503211442 61 193 0.0 3.0 0.00 0.00 0.00 52 1015.3
20260503211434 61 196 0.0 3.0 0.00 0.00 0.00 52 1015.3
20260503211109 61 188 0.0 3.0 0.00 0.00 0.00 52 1015.1
20260503211010 62 188 0.0 3.0 0.00 0.00 0.00 52 1015.3
20260503210909 62 190 0.0 4.0 0.00 0.00 0.00 52 1015.3
20260503210829 62 190 0.0 4.0 0.00 0.00 0.00 53 1015.2
20260503210810 62 190 0.0 4.0 0.00 0.00 0.00 52 1015.2
20260503210710 62 193 0.0 4.0 0.00 0.00 0.00 52 1015.3
20260503210610 62 199 0.0 4.0 0.00 0.00 0.00 52 1015.3
20260503210509 62 197 0.0 4.0 0.00 0.00 0.00 52 1015.3
20260503210408 62 231 1.0 4.0 0.00 0.00 0.00 51 1015.3
20260503210325 62 212 0.0 4.0 0.00 0.00 0.00 51 1015.3
20260503210305 62 196 1.0 4.0 0.00 0.00 0.00 51 1015.3
20260503210205 62 195 0.0 4.0 0.00 0.00 0.00 51 1015.4
20260503210105 62 187 0.0 4.0 0.00 0.00 0.00 51 1015.3
20260503210006 62 245 1.0 4.0 0.00 0.00 0.00 51 1015.3
20260503205904 62 209 0.0 2.0 0.00 0.00 0.00 51 1015.4
20260503205824 62 175 0.0 2.0 0.00 0.00 0.00 51 1015.5
20260503205804 62 204 0.0 2.0 0.00 0.00 0.00 51 1015.5
20260503205704 62 187 0.0 2.0 0.00 0.00 0.00 52 1015.5
20260503205639 62 214 0.0 2.0 0.00 0.00 0.00 52 1015.2
20260503205623 62 199 0.0 2.0 0.00 0.00 0.00 52 1015.5
20260503205324 62 201 0.0 4.0 0.00 0.00 0.00 52 1015.4
20260503205304 62 201 0.0 4.0 0.00 0.00 0.00 52 1015.4
20260503205204 62 192 0.0 4.0 0.00 0.00 0.00 52 1015.3
20260503205103 62 198 0.0 4.0 0.00 0.00 0.00 52 1015.1
20260503205002 62 203 0.0 4.0 0.00 0.00 0.00 52 1015.3
20260503204918 63 192 0.0 2.0 0.00 0.00 0.00 52 1015.1
20260503204913 62 171 0.0 4.0 0.00 0.00 0.00 52 1015.4
20260503204859 62 169 0.0 4.0 0.00 0.00 0.00 52 1015.4
20260503204851 62 204 0.0 4.0 0.00 0.00 0.00 52 1015.3
20260503204835 62 209 1.0 4.0 0.00 0.00 0.00 52 1015.4
20260503204820 62 196 0.0 4.0 0.00 0.00 0.00 52 1015.4
20260503204543 63 186 0.0 2.0 0.00 0.00 0.00 52 1015.3
20260503204303 63 204 0.0 2.0 0.00 0.00 0.00 52 1015.1
20260503204237 63 201 0.0 2.0 0.00 0.00 0.00 52 1015.4
20260503204221 63 193 0.0 2.0 0.00 0.00 0.00 52 1015.4
20260503204206 63 189 0.0 4.0 0.00 0.00 0.00 52 1015.5
20260503204151 63 189 0.0 4.0 0.00 0.00 0.00 52 1015.4
20260503204136 63 184 0.0 4.0 0.00 0.00 0.00 52 1015.4
20260503203603 63 203 0.0 4.0 0.00 0.00 0.00 51 1015.4
20260503203503 63 207 1.0 4.0 0.00 0.00 0.00 52 1015.4
20260503203404 63 183 0.0 4.0 0.00 0.00 0.00 52 1015.4
20260503203323 63 201 0.0 4.0 0.00 0.00 0.00 51 1015.5
20260503203304 63 181 0.0 4.0 0.00 0.00 0.00 51 1015.5
20260503203203 63 188 0.0 4.0 0.00 0.00 0.00 51 1015.3
20260503203120 63 196 0.0 4.0 0.00 0.00 0.00 51 1015.4
20260503203115 63 213 2.0 4.0 0.00 0.00 0.00 51 1015.4
20260503203059 63 186 0.0 4.0 0.00 0.00 0.00 52 1015.5
20260503203042 63 208 0.0 4.0 0.00 0.00 0.00 51 1015.3
20260503202804 63 204 0.0 4.0 0.00 0.00 0.00 52 1015.4
20260503202703 63 184 0.0 3.0 0.00 0.00 0.00 52 1015.2
20260503202603 63 189 0.0 3.0 0.00 0.00 0.00 51 1015.3
20260503202504 63 194 0.0 3.0 0.00 0.00 0.00 52 1015.5
20260503202403 63 184 0.0 3.0 0.00 0.00 0.00 52 1015.2
20260503202323 63 188 1.0 3.0 0.00 0.00 0.00 52 1015.1
20260503202304 63 181 0.0 3.0 0.00 0.00 0.00 52 1015.1
20260503202203 64 202 0.0 3.0 0.00 0.00 0.00 52 1015.2
20260503202140 64 184 0.0 3.0 0.00 0.00 0.00 52 1015.4
20260503202123 64 205 2.0 3.0 0.00 0.00 0.00 52 1015.4
20260503201825 64 184 0.0 3.0 0.00 0.00 0.00 52 1015.3
20260503201805 64 176 0.0 3.0 0.00 0.00 0.00 52 1015.3
20260503201753 64 199 1.0 4.0 0.00 0.00 0.00 53 1015.3
20260503201749 64 210 0.0 3.0 0.00 0.00 0.00 53 1015.4
20260503201740 64 192 0.0 3.0 0.00 0.00 0.00 52 1015.4
20260503201724 64 226 1.0 3.0 0.00 0.00 0.00 53 1015.3
20260503201708 64 196 0.0 2.0 0.00 0.00 0.00 53 1015.4
20260503201652 64 199 0.0 4.0 0.00 0.00 0.00 52 1015.3
20260503201638 64 191 0.0 4.0 0.00 0.00 0.00 52 1015.2
20260503201629 64 200 0.0 4.0 0.00 0.00 0.00 52 1015.2
20260503201611 64 186 0.0 4.0 0.00 0.00 0.00 52 1015.3
20260503201335 64 196 1.0 4.0 0.00 0.00 0.00 52 1015.2
20260503201318 64 175 0.0 4.0 0.00 0.00 0.00 53 1015.3
20260503201052 64 191 0.0 4.0 0.00 0.00 0.00 53 1015.3
20260503200811 64 191 0.0 4.0 0.00 0.00 0.00 53 1015.3
20260503200755 64 195 0.0 4.0 0.00 0.00 0.00 53 1015.4
20260503200740 64 225 0.0 3.0 0.00 0.00 0.00 53 1015.3
20260503200203 64 189 0.0 3.0 0.00 0.00 0.00 53 1015.4
20260503200104 64 198 0.0 3.0 0.00 0.00 0.00 53 1015.1
20260503195959 64 188 0.0 3.0 0.00 0.00 0.00 53 1015.3
20260503195900 64 211 2.0 3.0 0.00 0.00 0.00 53 1015.2
20260503195819 64 183 0.0 3.0 0.00 0.00 0.00 53 1015.2
20260503195759 64 198 0.0 3.0 0.00 0.00 0.00 53 1015.2
20260503195700 64 199 0.0 3.0 0.00 0.00 0.00 53 1015.2
20260503195558 64 182 0.0 3.0 0.00 0.00 0.00 53 1015.2
20260503195539 64 193 0.0 3.0 0.00 0.00 0.00 52 1015.1
20260503195531 64 195 0.0 3.0 0.00 0.00 0.00 53 1015.2
20260503195516 64 196 0.0 3.0 0.00 0.00 0.00 53 1015.4
20260503195502 64 222 1.0 3.0 0.00 0.00 0.00 53 1015.3
20260503195454 64 230 1.0 3.0 0.00 0.00 0.00 53 1015.3
20260503195435 64 195 0.0 3.0 0.00 0.00 0.00 53 1015.0
20260503195419 64 213 0.0 1.0 0.00 0.00 0.00 53 1015.2
20260503195403 65 200 1.0 1.0 0.00 0.00 0.00 52 1015.1
20260503195348 65 194 0.0 2.0 0.00 0.00 0.00 52 1015.3
20260503195334 65 182 0.0 2.0 0.00 0.00 0.00 52 1015.3
20260503195105 65 217 0.0 3.0 0.00 0.00 0.00 52 1015.0
20260503195049 65 192 0.0 3.0 0.00 0.00 0.00 52 1015.2
20260503194814 65 196 0.0 3.0 0.00 0.00 0.00 52 1015.2
20260503194759 65 205 0.0 3.0 0.00 0.00 0.00 52 1015.3
20260503194530 65 187 0.0 3.0 0.00 0.00 0.00 52 1015.5
20260503194036 64 205 0.0 3.0 0.00 0.00 0.00 52 1015.0
20260503193757 64 191 0.0 3.0 0.00 0.00 0.00 53 1015.1
20260503193652 65 190 0.0 3.0 0.00 0.00 0.00 53 1015.1
20260503193551 65 188 0.0 3.0 0.00 0.00 0.00 53 1015.2
20260503193451 65 188 0.0 3.0 0.00 0.00 0.00 53 1015.1
20260503193349 65 199 0.0 3.0 0.00 0.00 0.00 53 1015.2
20260503193307 65 194 0.0 3.0 0.00 0.00 0.00 53 1015.4
20260503193247 65 194 0.0 3.0 0.00 0.00 0.00 53 1015.4
20260503193145 65 186 0.0 3.0 0.00 0.00 0.00 53 1015.0
20260503193045 65 206 0.0 3.0 0.00 0.00 0.00 53 1015.1
20260503192945 64 196 0.0 3.0 0.00 0.00 0.00 53 1015.0
20260503192843 64 195 0.0 3.0 0.00 0.00 0.00 53 1015.2
20260503192800 64 204 0.0 3.0 0.00 0.00 0.00 53 1015.0
20260503192740 64 200 0.0 3.0 0.00 0.00 0.00 53 1015.0
20260503192640 64 188 0.0 3.0 0.00 0.00 0.00 53 1015.0
20260503192540 64 192 0.0 3.0 0.00 0.00 0.00 53 1015.3
20260503192441 64 194 0.0 3.0 0.00 0.00 0.00 53 1015.2
20260503192328 64 237 1.0 3.0 0.00 0.00 0.00 53 1015.2
20260503192300 64 191 0.0 1.0 0.00 0.00 0.00 54 1015.2
20260503192228 64 192 0.0 1.0 0.00 0.00 0.00 53 1015.1
20260503192129 64 223 0.0 1.0 0.00 0.00 0.00 53 1015.1
20260503192027 64 189 0.0 1.0 0.00 0.00 0.00 54 1015.0
20260503191928 64 192 0.0 1.0 0.00 0.00 0.00 53 1015.1
20260503191823 64 196 0.0 1.0 0.00 0.00 0.00 53 1015.2
20260503191755 64 202 0.0 1.0 0.00 0.00 0.00 53 1015.2
20260503191723 64 199 0.0 1.0 0.00 0.00 0.00 53 1015.1
20260503191700 64 194 0.0 0.0 0.00 0.00 0.00 53 1014.9
20260503191645 64 198 0.0 0.0 0.00 0.00 0.00 53 1015.1
20260503191325 64 196 0.0 0.0 0.00 0.00 0.00 53 1015.2
20260503191253 64 189 0.0 0.0 0.00 0.00 0.00 53 1015.2
20260503191221 64 185 0.0 0.0 0.00 0.00 0.00 53 1015.3
20260503191121 64 192 0.0 0.0 0.00 0.00 0.00 53 1015.1
20260503191054 64 187 0.0 0.0 0.00 0.00 0.00 53 1015.3
20260503191037 64 192 0.0 1.0 0.00 0.00 0.00 53 1015.1
20260503190749 64 194 0.0 1.0 0.00 0.00 0.00 53 1015.1
20260503190716 64 194 0.0 1.0 0.00 0.00 0.00 53 1015.1
20260503190617 64 194 0.0 1.0 0.00 0.00 0.00 53 1015.1
20260503190516 65 194 0.0 1.0 0.00 0.00 0.00 53 1015.1
20260503190417 65 194 0.0 1.0 0.00 0.00 0.00 53 1015.0
20260503190316 65 194 0.0 1.0 0.00 0.00 0.00 53 1015.0
20260503190249 65 192 0.0 1.0 0.00 0.00 0.00 53 1015.0
20260503190215 65 196 0.0 1.0 0.00 0.00 0.00 53 1015.2
20260503190116 65 195 0.0 1.0 0.00 0.00 0.00 52 1015.1
20260503190052 65 196 0.0 1.0 0.00 0.00 0.00 52 1014.9
20260503190036 65 191 0.0 0.0 0.00 0.00 0.00 52 1015.2
20260503185745 65 191 0.0 0.0 0.00 0.00 0.00 52 1015.1
20260503185711 65 190 0.0 0.0 0.00 0.00 0.00 52 1015.0
20260503185611 65 191 0.0 0.0 0.00 0.00 0.00 52 1015.2
20260503185511 65 191 0.0 0.0 0.00 0.00 0.00 52 1015.0
20260503185410 65 191 0.0 0.0 0.00 0.00 0.00 52 1014.9
20260503185313 65 192 0.0 0.0 0.00 0.00 0.00 51 1015.2
20260503185236 66 192 0.0 0.0 0.00 0.00 0.00 51 1015.2
20260503185211 66 192 0.0 0.0 0.00 0.00 0.00 51 1015.0
20260503185111 66 195 0.0 0.0 0.00 0.00 0.00 51 1015.0
20260503185008 66 167 0.0 0.0 0.00 0.00 0.00 51 1015.1
20260503184940 67 188 0.0 0.0 0.00 0.00 0.00 49 1014.8
20260503184933 66 196 0.0 1.0 0.00 0.00 0.00 51 1015.0
20260503184902 66 196 0.0 1.0 0.00 0.00 0.00 51 1015.0
20260503184854 66 223 0.0 1.0 0.00 0.00 0.00 50 1015.1
20260503184836 66 194 0.0 1.0 0.00 0.00 0.00 50 1015.0
20260503184820 66 190 0.0 1.0 0.00 0.00 0.00 51 1015.1
20260503184804 66 191 0.0 1.0 0.00 0.00 0.00 50 1015.1
20260503184531 67 190 0.0 1.0 0.00 0.00 0.00 50 1015.0
20260503184300 67 190 0.0 1.0 0.00 0.00 0.00 50 1014.9
20260503184243 67 194 0.0 2.0 0.00 0.00 0.00 49 1014.9
20260503184007 67 190 0.0 2.0 0.00 0.00 0.00 49 1014.9
20260503183954 67 193 0.0 2.0 0.00 0.00 0.00 49 1014.9
20260503183724 67 190 0.0 2.0 0.00 0.00 0.00 49 1015.0
20260503183707 67 192 0.0 2.0 0.00 0.00 0.00 49 1015.0
20260503183651 67 191 0.0 2.0 0.00 0.00 0.00 49 1014.9
20260503183635 67 186 0.0 2.0 0.00 0.00 0.00 49 1014.6
20260503183621 67 186 0.0 2.0 0.00 0.00 0.00 49 1014.9
20260503183612 67 188 0.0 2.0 0.00 0.00 0.00 49 1014.9
20260503183554 67 203 0.0 1.0 0.00 0.00 0.00 49 1015.0
20260503183537 67 191 0.0 1.0 0.00 0.00 0.00 49 1015.0
20260503183522 67 192 0.0 1.0 0.00 0.00 0.00 49 1015.0
20260503183507 67 178 0.0 1.0 0.00 0.00 0.00 49 1014.8
20260503183454 67 199 0.0 1.0 0.00 0.00 0.00 49 1014.8
20260503183227 67 196 0.0 0.0 0.00 0.00 0.00 49 1014.8
20260503182951 67 191 0.0 0.0 0.00 0.00 0.00 49 1015.0
20260503181936 68 192 0.0 0.0 0.00 0.00 0.00 48 1014.8
20260503181835 68 190 0.0 0.0 0.00 0.00 0.00 48 1015.0
20260503181720 68 190 0.0 0.0 0.00 0.00 0.00 48 1014.8
20260503181635 68 188 0.0 0.0 0.00 0.00 0.00 48 1015.0
20260503181604 68 191 0.0 0.0 0.00 0.00 0.00 48 1014.8
20260503181556 68 190 0.0 0.0 0.00 0.00 0.00 48 1014.8
20260503181540 68 201 0.0 0.0 0.00 0.00 0.00 48 1014.9
20260503181524 68 187 0.0 0.0 0.00 0.00 0.00 48 1014.7
20260503181510 68 191 0.0 0.0 0.00 0.00 0.00 48 1014.8
20260503181243 68 194 0.0 0.0 0.00 0.00 0.00 48 1014.6
20260503181224 68 195 0.0 0.0 0.00 0.00 0.00 48 1014.7
20260503180950 68 188 0.0 0.0 0.00 0.00 0.00 48 1014.7
20260503180924 68 194 0.0 0.0 0.00 0.00 0.00 48 1014.6
20260503180914 68 194 0.0 0.0 0.00 0.00 0.00 47 1014.8
20260503180639 68 194 0.0 0.0 0.00 0.00 0.00 47 1014.8
20260503180623 68 193 0.0 0.0 0.00 0.00 0.00 47 1014.2
20260503180351 69 190 0.0 0.0 0.00 0.00 0.00 47 1014.9
20260503180339 69 190 0.0 0.0 0.00 0.00 0.00 47 1014.7
20260503180320 69 190 0.0 0.0 0.00 0.00 0.00 47 1014.6
20260503180305 69 190 0.0 0.0 0.00 0.00 0.00 47 1014.8
20260503180016 69 189 0.0 0.0 0.00 0.00 0.00 47 1014.6
20260503175747 69 190 0.0 0.0 0.00 0.00 0.00 47 1014.6
20260503175730 69 189 0.0 0.0 0.00 0.00 0.00 47 1014.8
20260503175714 69 189 0.0 0.0 0.00 0.00 0.00 47 1014.7
20260503175448 69 190 0.0 0.0 0.00 0.00 0.00 46 1014.7
20260503174944 70 187 0.0 2.0 0.00 0.00 0.00 46 1014.6
20260503174927 70 187 0.0 2.0 0.00 0.00 0.00 46 1014.7
20260503174657 70 187 0.0 2.0 0.00 0.00 0.00 46 1014.5
20260503174557 70 188 0.0 2.0 0.00 0.00 0.00 46 1014.7
20260503174452 70 194 0.0 2.0 0.00 0.00 0.00 46 1014.5
20260503174348 70 194 0.0 2.0 0.00 0.00 0.00 46 1014.7
20260503174247 70 203 0.0 2.0 0.00 0.00 0.00 45 1014.6
20260503174145 70 190 0.0 2.0 0.00 0.00 0.00 46 1014.5
20260503174045 71 189 0.0 2.0 0.00 0.00 0.00 45 1014.7
20260503174006 71 186 0.0 1.0 0.00 0.00 0.00 46 1014.3
20260503173950 71 205 0.0 2.0 0.00 0.00 0.00 45 1014.7
20260503173934 71 191 0.0 2.0 0.00 0.00 0.00 45 1014.3
20260503173919 71 193 0.0 2.0 0.00 0.00 0.00 45 1014.3
20260503173652 71 194 0.0 2.0 0.00 0.00 0.00 46 1014.3
20260503173421 71 192 0.0 2.0 0.00 0.00 0.00 45 1014.7
20260503173412 71 194 0.0 2.0 0.00 0.00 0.00 46 1014.6
20260503173355 71 195 0.0 2.0 0.00 0.00 0.00 45 1014.7
20260503173115 71 188 0.0 2.0 0.00 0.00 0.00 45 1014.5
20260503173018 71 192 0.0 2.0 0.00 0.00 0.00 45 1014.7
20260503172904 71 184 0.0 2.0 0.00 0.00 0.00 45 1014.6
20260503172806 71 185 0.0 2.0 0.00 0.00 0.00 45 1014.5
20260503172703 71 175 0.0 2.0 0.00 0.00 0.00 45 1014.5
20260503172636 71 182 0.0 2.0 0.00 0.00 0.00 45 1014.5
20260503172603 71 241 0.0 1.0 0.00 0.00 0.00 45 1014.6
20260503172524 73 187 0.0 7.0 0.00 0.00 0.00 44 1014.5
20260503172514 71 190 0.0 1.0 0.00 0.00 0.00 45 1014.6
20260503172445 72 190 0.0 0.0 0.00 0.00 0.00 45 1014.7
20260503172429 72 184 0.0 0.0 0.00 0.00 0.00 46 1014.5
20260503172417 72 184 0.0 0.0 0.00 0.00 0.00 46 1014.3
20260503172145 72 194 0.0 0.0 0.00 0.00 0.00 45 1014.6
20260503172129 72 186 0.0 0.0 0.00 0.00 0.00 45 1014.5
20260503171852 72 193 0.0 1.0 0.00 0.00 0.00 45 1014.5
20260503171840 72 185 0.0 1.0 0.00 0.00 0.00 44 1014.5
20260503171830 72 185 0.0 1.0 0.00 0.00 0.00 45 1014.6
20260503171814 72 185 0.0 1.0 0.00 0.00 0.00 44 1014.6
20260503171758 72 192 0.0 1.0 0.00 0.00 0.00 45 1014.6
20260503171743 72 186 0.0 1.0 0.00 0.00 0.00 45 1014.6
20260503171511 72 186 0.0 1.0 0.00 0.00 0.00 45 1014.3
20260503171459 73 183 0.0 1.0 0.00 0.00 0.00 44 1014.6
20260503171220 73 184 0.0 7.0 0.00 0.00 0.00 44 1014.6
20260503170941 73 187 0.0 7.0 0.00 0.00 0.00 44 1014.5
20260503170443 73 187 0.0 7.0 0.00 0.00 0.00 43 1014.7
20260503170427 73 194 0.0 7.0 0.00 0.00 0.00 43 1014.7
20260503170143 73 200 0.0 7.0 0.00 0.00 0.00 42 1014.7
20260503170125 73 209 4.0 7.0 0.00 0.00 0.00 42 1014.6
20260503160214 74 195 1.0 11.0 0.00 0.00 0.00 41 1014.3
20260503160114 74 218 8.0 11.0 0.00 0.00 0.00 41 1014.6
20260503150450 76 121 0.0 8.0 0.00 0.00 0.00 41 1015.0
20260503150350 76 201 1.0 8.0 0.00 0.00 0.00 41 1014.9
20260503150251 76 187 0.0 8.0 0.00 0.00 0.00 41 1015.1
20260503150210 76 207 4.0 8.0 0.00 0.00 0.00 41 1014.9
20260503150150 76 212 1.0 8.0 0.00 0.00 0.00 41 1014.9
20260503130828 75 215 3.0 19.0 0.00 0.00 0.00 40 1016.2
20260503130726 75 206 5.0 19.0 0.00 0.00 0.00 40 1016.3
20260503130707 75 261 9.0 19.0 0.00 0.00 0.00 40 1016.3
20260503130658 75 219 12.0 19.0 0.00 0.00 0.00 40 1016.3
20260503130641 75 183 9.0 19.0 0.00 0.00 0.00 40 1016.3
20260503130625 75 213 9.0 19.0 0.00 0.00 0.00 40 1016.2
20260503130349 76 151 0.0 19.0 0.00 0.00 0.00 40 1016.1
20260503130336 76 170 1.0 19.0 0.00 0.00 0.00 40 1016.1
20260503130325 76 216 3.0 19.0 0.00 0.00 0.00 39 1016.4
20260503130309 76 187 5.0 7.0 0.00 0.00 0.00 40 1016.3
20260503110814 75 216 2.0 14.0 0.00 0.00 0.00 43 1017.2
20260503110505 75 207 5.0 14.0 0.00 0.00 0.00 42 1017.1
20260503110405 75 200 0.0 14.0 0.00 0.00 0.00 42 1017.4
20260503110305 75 265 7.0 14.0 0.00 0.00 0.00 41 1017.5
20260503110250 74 251 2.0 15.0 0.00 0.00 0.00 42 1017.4
20260503110241 75 245 3.0 14.0 0.00 0.00 0.00 42 1017.1
20260503110217 75 243 4.0 14.0 0.00 0.00 0.00 42 1017.3
20260503110200 75 239 3.0 14.0 0.00 0.00 0.00 42 1017.4
20260503110144 75 309 3.0 8.0 0.00 0.00 0.00 43 1017.5
20260503110128 75 201 1.0 8.0 0.00 0.00 0.00 43 1017.3
20260503110112 74 190 0.0 8.0 0.00 0.00 0.00 44 1017.5
20260503100248 76 234 5.0 11.0 0.00 0.00 0.00 42 1018.1
20260503100146 76 216 0.0 11.0 0.00 0.00 0.00 42 1018.2
20260503100122 75 190 0.0 11.0 0.00 0.00 0.00 42 1017.9
20260503100106 75 182 0.0 11.0 0.00 0.00 0.00 43 1018.3
20260503090310 71 202 1.0 13.0 0.00 0.00 0.00 47 1018.7
20260503081425 70 232 1.0 14.0 0.00 0.00 0.00 48 1018.8
20260503081409 70 238 4.0 14.0 0.00 0.00 0.00 47 1018.7
20260503081145 69 254 1.0 14.0 0.00 0.00 0.00 48 1018.5
20260503081129 69 236 4.0 14.0 0.00 0.00 0.00 48 1018.5
20260503081113 69 233 7.0 13.0 0.00 0.00 0.00 47 1018.5
20260503080846 71 229 4.0 13.0 0.00 0.00 0.00 47 1018.9
20260503080829 72 215 5.0 13.0 0.00 0.00 0.00 46 1018.8
20260503080509 72 198 0.0 9.0 0.00 0.00 0.00 46 1018.5
20260503080409 72 155 0.0 9.0 0.00 0.00 0.00 47 1018.8
20260503080330 72 194 0.0 9.0 0.00 0.00 0.00 46 1018.5
20260503080310 72 208 4.0 9.0 0.00 0.00 0.00 46 1018.5
20260503080209 72 164 2.0 9.0 0.00 0.00 0.00 46 1018.5
20260503080109 72 210 2.0 9.0 0.00 0.00 0.00 45 1018.5
20260503072508 68 199 3.0 17.0 0.00 0.00 0.00 49 1018.7
20260503072410 68 266 6.0 17.0 0.00 0.00 0.00 48 1018.5
20260503072355 67 170 0.0 17.0 0.00 0.00 0.00 48 1018.5
20260503072345 67 247 4.0 17.0 0.00 0.00 0.00 48 1018.5
20260503072329 67 222 4.0 17.0 0.00 0.00 0.00 49 1019.0
20260503072008 67 230 1.0 10.0 0.00 0.00 0.00 48 1018.7
20260503071908 67 216 3.0 17.0 0.00 0.00 0.00 50 1018.5
20260503071828 67 223 4.0 17.0 0.00 0.00 0.00 50 1018.8
20260503071808 67 209 4.0 17.0 0.00 0.00 0.00 49 1018.8
20260503071708 68 174 1.0 17.0 0.00 0.00 0.00 50 1018.4
20260503071609 68 187 0.0 17.0 0.00 0.00 0.00 49 1018.5
20260503071510 67 214 1.0 17.0 0.00 0.00 0.00 49 1018.7
20260503071408 67 195 0.0 17.0 0.00 0.00 0.00 50 1018.4
20260503071328 67 199 2.0 17.0 0.00 0.00 0.00 50 1018.8
20260503071308 67 231 7.0 17.0 0.00 0.00 0.00 49 1018.8
20260503071209 68 216 4.0 17.0 0.00 0.00 0.00 49 1018.3
20260503071109 69 207 6.0 17.0 0.00 0.00 0.00 49 1018.5
20260503071007 69 230 7.0 17.0 0.00 0.00 0.00 48 1018.5
20260503070945 66 204 3.0 11.0 0.00 0.00 0.00 51 1018.8
20260503070937 68 204 1.0 11.0 0.00 0.00 0.00 49 1018.7
20260503070922 68 191 0.0 11.0 0.00 0.00 0.00 49 1018.5
20260503070914 68 287 1.0 11.0 0.00 0.00 0.00 50 1018.5
20260503070859 68 203 0.0 11.0 0.00 0.00 0.00 50 1018.5
20260503070843 67 204 2.0 11.0 0.00 0.00 0.00 50 1018.5
20260503070827 67 198 2.0 11.0 0.00 0.00 0.00 50 1018.4
20260503070811 67 182 0.0 11.0 0.00 0.00 0.00 51 1018.4
20260503070541 66 230 2.0 11.0 0.00 0.00 0.00 51 1018.8
20260503070524 66 232 1.0 11.0 0.00 0.00 0.00 52 1018.4
20260503070507 66 191 0.0 11.0 0.00 0.00 0.00 53 1018.7
20260503070452 66 215 2.0 9.0 0.00 0.00 0.00 52 1018.4
20260503070216 65 177 0.0 9.0 0.00 0.00 0.00 54 1018.4
20260503060328 65 233 3.0 6.0 0.00 0.00 0.00 53 1018.3
20260503060308 64 205 2.0 6.0 0.00 0.00 0.00 53 1018.3
20260503060207 64 211 0.0 6.0 0.00 0.00 0.00 54 1018.4
20260503060107 65 223 2.0 6.0 0.00 0.00 0.00 53 1018.8
20260503055002 64 206 1.0 4.0 0.00 0.00 0.00 54 1018.5
20260503054902 64 228 1.0 4.0 0.00 0.00 0.00 55 1018.4
20260503054822 64 188 0.0 4.0 0.00 0.00 0.00 55 1018.2
20260503054803 65 183 0.0 4.0 0.00 0.00 0.00 55 1018.2
20260503054703 65 173 0.0 3.0 0.00 0.00 0.00 53 1018.5
20260503054604 65 224 3.0 3.0 0.00 0.00 0.00 54 1018.5
20260503054548 65 192 0.0 1.0 0.00 0.00 0.00 56 1018.5
20260503054532 63 192 0.0 1.0 0.00 0.00 0.00 56 1018.5
20260503054517 63 194 0.0 1.0 0.00 0.00 0.00 56 1018.8
20260503054202 63 195 0.0 1.0 0.00 0.00 0.00 57 1018.4
20260503054101 63 191 0.0 1.0 0.00 0.00 0.00 57 1018.4
20260503054002 63 196 0.0 1.0 0.00 0.00 0.00 56 1018.7
20260503053902 63 196 0.0 1.0 0.00 0.00 0.00 56 1018.7
20260503053822 63 193 0.0 1.0 0.00 0.00 0.00 56 1018.7
20260503053803 63 190 0.0 1.0 0.00 0.00 0.00 56 1018.7
20260503053658 63 188 0.0 1.0 0.00 0.00 0.00 55 1018.4
20260503053610 63 188 0.0 1.0 0.00 0.00 0.00 56 1018.5
20260503053605 63 189 0.0 1.0 0.00 0.00 0.00 56 1018.5
20260503053550 63 189 0.0 1.0 0.00 0.00 0.00 56 1018.4
20260503053534 63 190 0.0 1.0 0.00 0.00 0.00 57 1018.7
20260503053255 64 187 0.0 1.0 0.00 0.00 0.00 56 1018.5
20260503053155 64 195 0.0 1.0 0.00 0.00 0.00 54 1018.8
20260503053055 63 189 0.0 0.0 0.00 0.00 0.00 55 1018.8
20260503052955 63 185 0.0 0.0 0.00 0.00 0.00 55 1018.4
20260503052934 62 184 0.0 0.0 0.00 0.00 0.00 56 1018.5
20260503052919 62 184 0.0 0.0 0.00 0.00 0.00 57 1018.4
20260503052911 62 184 0.0 0.0 0.00 0.00 0.00 57 1018.4
20260503052552 62 181 0.0 0.0 0.00 0.00 0.00 58 1018.5
20260503052444 61 181 0.0 1.0 0.00 0.00 0.00 58 1018.7
20260503052340 60 181 0.0 1.0 0.00 0.00 0.00 59 1018.7
20260503052312 60 180 0.0 1.0 0.00 0.00 0.00 59 1018.3
20260503052239 60 180 0.0 1.0 0.00 0.00 0.00 59 1018.5
20260503052140 59 186 0.0 1.0 0.00 0.00 0.00 60 1018.5
20260503052039 58 186 0.0 1.0 0.00 0.00 0.00 61 1018.3
20260503051941 58 173 0.0 1.0 0.00 0.00 0.00 63 1018.5
20260503051840 58 148 0.0 1.0 0.00 0.00 0.00 62 1018.8
20260503051811 58 160 0.0 1.0 0.00 0.00 0.00 61 1018.8
20260503051758 56 177 0.0 1.0 0.00 0.00 0.00 65 1018.7
20260503051751 58 161 0.0 1.0 0.00 0.00 0.00 62 1018.4
20260503051736 58 165 0.0 1.0 0.00 0.00 0.00 63 1018.5
20260503051720 58 108 0.0 1.0 0.00 0.00 0.00 62 1018.7
20260503051704 58 161 0.0 1.0 0.00 0.00 0.00 61 1018.7
20260503051649 57 176 0.0 1.0 0.00 0.00 0.00 63 1018.8
20260503051635 57 173 0.0 1.0 0.00 0.00 0.00 63 1018.8
20260503051624 57 105 0.0 1.0 0.00 0.00 0.00 63 1018.8
20260503051608 57 173 0.0 1.0 0.00 0.00 0.00 63 1018.4
20260503051552 57 172 0.0 1.0 0.00 0.00 0.00 63 1018.4
20260503051535 57 90 0.0 1.0 0.00 0.00 0.00 63 1018.7
20260503051519 57 162 0.0 1.0 0.00 0.00 0.00 63 1018.4
20260503051505 56 162 0.0 1.0 0.00 0.00 0.00 63 1018.4
20260503051456 56 160 0.0 1.0 0.00 0.00 0.00 63 1018.4
20260503051000 57 161 0.0 1.0 0.00 0.00 0.00 64 1018.5
20260503050511 56 173 0.0 1.0 0.00 0.00 0.00 64 1018.5
20260503050456 56 153 0.0 0.0 0.00 0.00 0.00 64 1018.7
20260503050439 56 170 0.0 0.0 0.00 0.00 0.00 64 1018.7
20260503045946 56 160 0.0 1.0 0.00 0.00 0.00 64 1018.5
20260503045707 55 167 0.0 1.0 0.00 0.00 0.00 65 1018.5
20260503045651 55 160 0.0 1.0 0.00 0.00 0.00 65 1018.4
20260503045359 54 156 0.0 1.0 0.00 0.00 0.00 67 1018.7
20260503045352 55 164 0.0 1.0 0.00 0.00 0.00 66 1018.7
20260503045338 55 162 0.0 1.0 0.00 0.00 0.00 66 1018.7
20260503045327 55 161 0.0 1.0 0.00 0.00 0.00 66 1018.7
20260503045311 54 160 0.0 1.0 0.00 0.00 0.00 66 1018.5
20260503045255 54 152 0.0 1.0 0.00 0.00 0.00 66 1018.7
20260503045239 54 156 0.0 1.0 0.00 0.00 0.00 67 1018.4
20260503044720 54 145 0.0 1.0 0.00 0.00 0.00 67 1018.4
20260503044620 54 150 0.0 1.0 0.00 0.00 0.00 66 1018.5
20260503044520 54 160 0.0 1.0 0.00 0.00 0.00 66 1018.5
20260503044420 54 157 0.0 1.0 0.00 0.00 0.00 66 1018.4
20260503044320 54 165 0.0 0.0 0.00 0.00 0.00 66 1018.5
20260503044304 54 165 0.0 0.0 0.00 0.00 0.00 67 1018.5
20260503044219 54 164 0.0 0.0 0.00 0.00 0.00 68 1018.4
20260503044118 54 165 0.0 0.0 0.00 0.00 0.00 68 1018.3
20260503044054 55 168 0.0 0.0 0.00 0.00 0.00 65 1018.5
20260503044046 54 166 0.0 0.0 0.00 0.00 0.00 67 1018.5
20260503044031 55 167 0.0 0.0 0.00 0.00 0.00 66 1018.8